Regional Weather Roundup
Issued by NWS

Home | Current Version | Previous Version | Text Only | Print | Product List | Glossary Off
Versions: 1 2 3 4 5 6 7 8 9 10 11 12 13 14 15 16 17 18 19 20 21 22 23 24 25 26 27

000
ASUS45 KTFX 201610
RWRMT
MONTANA REGIONAL WEATHER ROUNDUP
NATIONAL WEATHER SERVICE GREAT FALLS MT
1000 AM MDT SUN AUG 20 2017

NOTE: "FAIR" INDICATES FEW OR NO CLOUDS BELOW 12000 FEET WITH NO
SIGNIFICANT WEATHER AND/OR OBSTRUCTIONS TO VISIBILITY.

MTZ001>007-043-201700-
WEST OF THE DIVIDE

CITY           SKY/WX    TMP DP  RH WIND       PRES   REMARKS
KALISPELL      MOSUNNY   62  42  47 CALM      30.09S
MISSOULA       HAZE      57  41  55 CALM      30.14S VSB 1
BUTTE          SUNNY     56  37  49 CALM      30.20S
MULLAN PASS    MOSUNNY   55  34  45 CALM      30.21R
ANACONDA         N/A     63  36  36 CALM        N/A
DEER LODGE       N/A     57  37  47 CALM      30.19S
EUREKA           N/A     61  37  41 MISG      30.10
HAMILTON         N/A     61  39  44 S8        30.14S
LIBBY            N/A     57  36  44 CALM      30.09F
PLAINS           N/A     59  40  49 CALM      30.11
RONAN            N/A     65  42  43 MISG      30.14R
$$

MTZ008-052>055-201700-
SOUTHWEST MONTANA

CITY           SKY/WX    TMP DP  RH WIND       PRES   REMARKS
BOZEMAN        SUNNY     62  37  39 CALM      30.14F
DILLON         SUNNY     59  37  44 W3        30.17S
W YELLOWSTONE  SUNNY     55  36  47 CALM      30.23S
ENNIS          SUNNY     61  36  39 CALM      30.22S
THREE FORKS      N/A     65  39  38 CALM      30.12R
TWIN BRIDGES     N/A     58  37  45 CALM      30.14
$$

MTZ009-010-012-014-046-048-049-054-201700-
EAST SLOPES AND CENTRAL MONTANA

CITY           SKY/WX    TMP DP  RH WIND       PRES   REMARKS
CUT BANK       MOSUNNY   63  38  39 CALM      30.05S
GREAT FALLS    MOSUNNY   66  37  34 SW15      30.06S
MALMSTROM AFB  MOSUNNY   67  38  34 SW14      30.06S
HELENA         SUNNY     70  37  29 W14       30.12S
AUGUSTA          N/A     65  31  27 W10       30.08S
BOWMANS CRNR     N/A     64  33  31 SW7       30.07S
CHOTEAU          N/A     70  37  30 VRB5      30.07S
CONRAD           N/A     60  46  59 CALM      30.06S
POWER            N/A     66  36  33 SW10      30.05S
RAYNESFORD       N/A     68  34  28 W16       30.08S
ULM              N/A     68  37  31 SW14      30.07S
$$

MTZ011-013-016-021-045-047-050-051-201700-
NORTH CENTRAL MONTANA

CITY           SKY/WX    TMP DP  RH WIND       PRES   REMARKS
HAVRE          CLOUDY    62  33  33 W6        30.01F
LEWISTOWN      CLOUDY    64  38  38 CALM      30.08F
N BAR RANCH      N/A     68  37  32 S12       30.12F
CHINOOK          N/A     64  37  36 E8        30.01F
DENTON           N/A     68  38  32 SW13      30.02F
GRASS RANGE      N/A     66  36  33 E5        30.04F
JUDITH GAP       N/A     64  38  37 S6        30.11F
$$

MTZ017>020-022>027-061-062-201700-
NORTHEAST MONTANA

CITY           SKY/WX    TMP DP  RH WIND       PRES   REMARKS
GLASGOW        MOSUNNY   65  34  31 SE10      30.06F
JORDAN           N/A     69  32  25 SE9       30.06F
SIDNEY         SUNNY     66  42  41 S5        30.09S
WOLF POINT     MOSUNNY   64  36  35 S3        30.08F
MALTA          PTSUNNY   63  39  42 E3        30.05F
PLENTYWOOD       N/A     64  36  34 S3        30.08F
POPLAR           N/A     64  37  36 CALM      30.08F
SCOBEY           N/A     65  34  31 S1        30.06S
$$

MTZ028>42-056>058-201700-
SOUTHCENTRAL AND SOUTHEAST MONTANA

CITY           SKY/WX    TMP DP  RH WIND       PRES   REMARKS
BAKER          CLOUDY    65  37  35 E14       30.11R
BILLINGS       MOSUNNY   67  38  34 NE7       30.06F
LIVINGSTON     SUNNY     62  40  44 W6        30.12F
MILES CITY     CLOUDY    66  39  37 E7        30.07S
BIG TIMBER     SUNNY     64  37  36 W7        30.13F
EKALAKA          N/A     64  37  36 SE18      30.06
HARLOWTON        N/A     62  37  39 MISG      30.11F
LAUREL           N/A     67  37  33 N2        30.05F
$$

REGIONAL REPORTS...DAKOTAS

CITY           SKY/WX    TMP DP  RH WIND       PRES   REMARKS
WILLISTON      SUNNY     65  42  43 CALM      30.09S
MINOT          MOSUNNY   70  43  37 W5        30.06R
DICKINSON      CLOUDY    60  45  57 VRB3      30.09S
BEACH            N/A     64  36  34 SE9       30.14F
CROSBY           N/A     63  41  45 S12       30.08S
TIOGA            N/A     64  36  34 VRB3      30.10F
BISMARCK       CLOUDY    67  46  47 NW7       30.08R
GRAND FORKS    CLOUDY    72  51  47 NW9       29.97R
FARGO          CLOUDY    69  53  56 NW15      29.97S
BUFFALO SD       N/A     67  41  38 E8        30.06S
RAPID CITY     SUNNY     69  47  45 N9        30.11S
$$

REGIONAL REPORTS...WYOMING/IDAHO/WASHINGTON

CITY           SKY/WX    TMP DP  RH WIND       PRES   REMARKS
GILLETTE       SUNNY     71  43  36 SE7       30.09F
SHERIDAN       SUNNY     68  44  42 CALM      30.06F
BUFFALO WY     SUNNY     68  40  35 SE8       30.11F
CODY           SUNNY     62  42  47 NE5       30.13F
YELLOWSTONE LA   N/A     56  43  61 CALM      30.29S
IDAHO FALLS    SUNNY     64  39  39 S10       30.13S
SALMON         SUNNY     60  39  45 CALM      30.16F
BOISE          SUNNY     65  43  44 VRB3      30.07F
SPOKANE        CLOUDY    63  41  44 S9        30.08S
$$

REGIONAL REPORTS...ALBERTA

CITY           SKY/WX    TMP DP  RH WIND       PRES   REMARKS
EDMONTON       PTSUNNY   59  45  58 W9        29.97S
CALGARY        CLOUDY    57  36  44 VRB2      30.01S
LETHBRIDGE     PTSUNNY   63  36  36 W13G21    30.01S
MEDICINE HAT   MOSUNNY   64  41  42 NW2       29.97F
$$

REGIONAL REPORTS...SASKATCHEWAN

CITY           SKY/WX    TMP DP  RH WIND       PRES   REMARKS
SWIFT CURRENT  CLOUDY    63  37  39 S8        30.02S
REGINA         PTSUNNY   63  41  45 SW5       30.04R
SASKATOON      PTSUNNY   57  45  62 SW13      29.99R
$$




USA.gov is the U.S. government's official web portal to all federal, state and local government web resources and services.